Preview of NWS' New Version of Forecast
This preview is not operational and should not be used for support decisions.

Regional Weather Roundup (RWR)

Issued by National Weather Service (NWS)

                            
000
ASCA42 TJSJ 231410
RWRPR 
PUERTO RICO/U.S. VIRGIN ISLANDS HOURLY WEATHER ROUNDUP
NATIONAL WEATHER SERVICE SAN JUAN PR
1000 AM AST SAT MAR 23 2019

PRZ001>002-007>008-010-231500-
PUERTO RICO
  
CITY           SKY/WX    TMP DP  RH WIND       PRES   REMARKS
SAN JUAN LMM   MOSUNNY   81  68  65 E12G20    30.12R                  
AGUADILLA      SUNNY     81  68  65 E13       30.13R                  
CEIBA          MOSUNNY   84  72  65 E13       30.13R                  
$$

VIZ001>002-231500-
U.S. VIRGIN ISLANDS
  
CITY           SKY/WX    TMP DP  RH WIND       PRES   REMARKS
CHARLOTTE AMA  PTSUNNY   81  70  69 SE13      30.11R                  
CHRISTIANSTED  MOSUNNY   84  68  58 E16       30.12R                  
$$

HOURLY WEATHER ROUNDUP FOR THE NEWS MEDIA
  
CITY           SKY/WX    TMP DP  RH WIND       PRES   REMARKS
ORLANDO        FAIR      65  42  43 NE12      30.21R                  
NEW YORK       PTSUNNY   37  23  56 NW26G38   29.81R WCI  25          
NEWARK         PTSUNNY   38  21  50 W24       29.82R WCI  27          
CHICAGO        FAIR      33  28  81 S3        30.33R                  
HARTFORD       CLOUDY    35  26  69 W20G30    29.54R WCI  24          
BOSTON         PTSUNNY   39  26  59 W26G32    29.50R WCI  28          
DALLAS         PTSUNNY   62  52  69 S14       30.07R                  
PHILADELPHIA   PTSUNNY   40  21  46 NW20G28   29.95R WCI  30          
LOS ANGELES    CLOUDY    57  49  74 S6        30.14R                  
WASHINGTON DC  FAIR      38  19  46 NW23G32   30.10R WCI  27